GFSGBSN_prec_pwat_132.txt.gz
Precipitable_Water
0.74 0.75 0.78 0.77 0.75 0.74 0.70 0.66 0.63 0.60 0.58 0.56 0.55 0.55 0.54 0.50 0.51 0.52 0.54 0.55 0.54 0.53 0.51 0.49 0.47 0.45 0.44 0.46 0.53 0.67 0.40 0.41 0.51 0.47 0.58 0.69 0.81 0.98 0.94 1.27 1.22 1.31 1.21 1.29 1.22 1.31 1.46
0.73 0.72 0.74 0.74 0.71 0.68 0.64 0.60 0.57 0.55 0.54 0.53 0.53 0.53 0.53 0.50 0.55 0.55 0.58 0.57 0.55 0.52 0.49 0.49 0.47 0.49 0.48 0.47 0.68 0.50 0.34 0.43 0.48 0.44 0.56 0.85 1.01 1.29 1.03 1.15 1.18 1.25 1.17 1.23 1.27 1.34 1.32
0.70 0.71 0.71 0.70 0.67 0.63 0.58 0.54 0.52 0.51 0.50 0.50 0.51 0.51 0.50 0.49 0.55 0.57 0.57 0.57 0.54 0.53 0.49 0.48 0.51 0.62 0.61 0.56 0.63 0.51 0.36 0.30 0.40 0.39 0.56 0.97 1.27 1.18 0.98 1.06 1.57 1.00 1.01 1.11 1.14 1.27 1.26
0.68 0.68 0.68 0.67 0.65 0.61 0.56 0.54 0.53 0.51 0.48 0.46 0.47 0.48 0.47 0.49 0.55 0.54 0.56 0.58 0.61 0.53 0.48 0.56 0.61 0.70 0.46 0.59 0.61 0.43 0.37 0.30 0.35 0.37 0.54 1.00 1.08 0.95 0.77 1.09 1.09 0.96 0.97 0.83 1.05 1.20 1.26
0.66 0.66 0.68 0.67 0.67 0.65 0.58 0.54 0.53 0.52 0.49 0.46 0.45 0.45 0.45 0.51 0.53 0.53 0.56 0.58 0.64 0.63 0.61 0.67 0.73 0.72 0.37 0.39 0.42 0.54 0.50 0.32 0.28 0.34 0.47 0.75 0.81 0.79 0.88 0.80 0.94 1.05 0.80 0.91 1.00 1.11 1.17
0.76 0.71 0.66 0.64 0.65 0.65 0.65 0.60 0.56 0.53 0.51 0.47 0.45 0.43 0.45 0.52 0.52 0.55 0.55 0.59 0.60 0.63 0.75 0.76 0.74 0.66 0.49 0.45 0.49 0.54 0.40 0.30 0.28 0.29 0.29 0.47 0.67 0.64 0.58 0.69 0.58 0.75 0.80 0.99 1.11 1.03 1.11
0.76 0.78 0.78 0.72 0.64 0.63 0.63 0.62 0.59 0.56 0.53 0.48 0.44 0.41 0.47 0.53 0.53 0.57 0.60 0.71 0.66 0.53 0.56 0.42 0.44 0.41 0.41 0.42 0.41 0.45 0.31 0.25 0.24 0.23 0.26 0.44 0.54 0.53 0.61 0.77 0.75 0.76 0.79 0.85 1.19 1.03 0.97
0.73 0.70 0.70 0.73 0.76 0.69 0.63 0.62 0.59 0.57 0.55 0.50 0.44 0.40 0.48 0.54 0.56 0.60 0.66 0.57 0.51 0.49 0.39 0.40 0.40 0.40 0.44 0.40 0.35 0.41 0.33 0.22 0.20 0.19 0.35 0.53 0.43 0.61 0.68 0.71 0.67 0.64 0.64 0.82 1.19 1.01 0.86
0.83 0.76 0.69 0.66 0.68 0.74 0.72 0.64 0.61 0.57 0.56 0.51 0.43 0.40 0.48 0.53 0.56 0.58 0.55 0.49 0.58 0.61 0.47 0.41 0.44 0.45 0.43 0.45 0.39 0.34 0.38 0.39 0.25 0.22 0.24 0.43 0.50 0.50 0.59 0.62 0.47 0.51 0.52 0.70 0.66 0.92 0.94
0.84 0.83 0.83 0.79 0.68 0.65 0.70 0.71 0.64 0.58 0.56 0.52 0.45 0.39 0.45 0.52 0.53 0.54 0.51 0.57 0.65 0.69 0.43 0.39 0.41 0.43 0.45 0.44 0.35 0.40 0.47 0.40 0.33 0.26 0.28 0.28 0.42 0.57 0.57 0.47 0.49 0.38 0.69 0.70 0.67 0.78 0.67
0.89 0.87 0.85 0.83 0.82 0.76 0.66 0.67 0.68 0.63 0.55 0.54 0.47 0.40 0.43 0.53 0.49 0.47 0.54 0.56 0.65 0.66 0.36 0.43 0.37 0.40 0.42 0.41 0.40 0.37 0.41 0.36 0.36 0.30 0.31 0.32 0.43 0.48 0.45 0.40 0.45 0.44 0.63 0.61 0.65 0.70 0.72
0.90 0.90 0.90 0.89 0.88 0.84 0.80 0.69 0.66 0.65 0.59 0.54 0.50 0.43 0.39 0.42 0.45 0.45 0.50 0.55 0.61 0.48 0.38 0.38 0.41 0.38 0.40 0.40 0.37 0.37 0.32 0.38 0.43 0.36 0.33 0.39 0.47 0.47 0.41 0.45 0.42 0.49 0.56 0.63 0.61 0.55 0.45
0.93 0.91 0.90 0.90 0.89 0.87 0.86 0.79 0.68 0.65 0.62 0.53 0.50 0.43 0.37 0.41 0.47 0.55 0.52 0.51 0.46 0.41 0.44 0.36 0.37 0.36 0.42 0.39 0.38 0.38 0.36 0.33 0.34 0.27 0.29 0.32 0.30 0.36 0.36 0.38 0.40 0.39 0.38 0.37 0.36 0.42 0.47
0.95 0.94 0.93 0.91 0.89 0.88 0.87 0.86 0.77 0.65 0.62 0.53 0.48 0.43 0.40 0.30 0.43 0.52 0.56 0.45 0.39 0.44 0.33 0.42 0.31 0.32 0.43 0.41 0.40 0.37 0.35 0.36 0.38 0.32 0.35 0.33 0.30 0.32 0.31 0.27 0.30 0.47 0.46 0.40 0.40 0.48 0.64
1.00 0.98 0.97 0.96 0.95 0.92 0.89 0.87 0.85 0.74 0.61 0.52 0.46 0.46 0.37 0.37 0.45 0.57 0.46 0.40 0.43 0.45 0.40 0.34 0.35 0.35 0.41 0.39 0.40 0.36 0.36 0.38 0.40 0.36 0.32 0.38 0.37 0.43 0.43 0.40 0.33 0.39 0.48 0.60 0.67 0.69 0.59
1.10 1.09 1.08 1.05 1.01 0.97 0.94 0.89 0.87 0.81 0.67 0.55 0.41 0.56 0.61 0.64 0.62 0.53 0.41 0.41 0.47 0.43 0.36 0.32 0.34 0.42 0.41 0.42 0.38 0.41 0.45 0.42 0.39 0.40 0.39 0.41 0.38 0.48 0.52 0.51 0.46 0.45 0.59 0.55 0.54 0.46 0.45
1.20 1.20 1.19 1.17 1.15 1.09 1.02 0.94 0.92 0.85 0.77 0.56 0.41 0.52 0.70 0.67 0.59 0.45 0.35 0.48 0.48 0.43 0.37 0.32 0.36 0.38 0.36 0.40 0.39 0.46 0.46 0.51 0.45 0.41 0.42 0.36 0.35 0.45 0.49 0.52 0.59 0.61 0.50 0.51 0.59 0.64 0.58
1.33 1.30 1.27 1.27 1.28 1.20 1.14 1.04 0.95 0.90 0.85 0.59 0.39 0.41 0.75 0.75 0.42 0.40 0.37 0.50 0.51 0.42 0.41 0.33 0.38 0.40 0.42 0.48 0.40 0.37 0.41 0.51 0.57 0.46 0.35 0.43 0.42 0.36 0.44 0.59 0.70 0.68 0.61 0.57 0.55 0.52 0.71
1.39 1.36 1.34 1.29 1.29 1.23 1.17 1.10 1.10 1.10 1.00 0.75 0.40 0.40 0.72 0.70 0.41 0.38 0.49 0.48 0.46 0.37 0.41 0.38 0.36 0.36 0.41 0.41 0.40 0.48 0.51 0.58 0.53 0.41 0.46 0.48 0.42 0.34 0.36 0.56 0.71 0.59 0.63 0.61 0.63 0.58 0.63
1.38 1.37 1.37 1.34 1.31 1.27 1.21 1.12 1.06 1.10 1.11 0.89 0.54 0.35 0.47 0.64 0.56 0.45 0.49 0.55 0.49 0.46 0.43 0.46 0.41 0.41 0.39 0.35 0.40 0.43 0.47 0.49 0.51 0.42 0.41 0.40 0.36 0.34 0.34 0.49 0.56 0.51 0.65 0.66 0.61 0.53 0.58
1.38 1.38 1.39 1.36 1.33 1.28 1.25 1.14 1.08 1.11 1.09 0.97 0.70 0.47 0.49 0.46 0.51 0.51 0.46 0.51 0.57 0.48 0.49 0.45 0.39 0.39 0.39 0.34 0.36 0.39 0.40 0.38 0.45 0.48 0.41 0.35 0.28 0.36 0.40 0.50 0.51 0.55 0.52 0.59 0.55 0.59 0.56
1.36 1.36 1.37 1.34 1.29 1.27 1.24 1.15 1.10 1.10 1.07 0.88 0.73 0.67 0.67 0.56 0.66 0.67 0.60 0.47 0.49 0.52 0.54 0.48 0.42 0.45 0.43 0.38 0.41 0.41 0.44 0.43 0.40 0.48 0.51 0.45 0.38 0.43 0.36 0.37 0.37 0.43 0.54 0.49 0.55 0.56 0.80
1.27 1.25 1.22 1.22 1.23 1.21 1.17 1.12 1.11 1.07 1.06 0.88 0.93 0.91 0.74 0.54 0.53 0.55 0.52 0.59 0.60 0.57 0.59 0.54 0.54 0.47 0.44 0.50 0.49 0.50 0.49 0.46 0.41 0.44 0.43 0.47 0.42 0.42 0.36 0.45 0.49 0.37 0.49 0.45 0.50 0.57 0.85
1.22 1.16 1.16 1.19 1.15 1.13 1.14 1.10 1.10 1.10 1.08 1.01 0.98 0.93 0.73 0.57 0.54 0.47 0.48 0.56 0.61 0.63 0.58 0.59 0.56 0.52 0.56 0.59 0.57 0.51 0.44 0.39 0.40 0.36 0.39 0.35 0.35 0.38 0.33 0.35 0.27 0.38 0.51 0.55 0.55 0.58 0.63
1.16 1.11 1.10 1.12 1.14 1.17 1.11 1.05 1.06 1.11 1.09 1.01 1.08 0.96 0.79 0.63 0.65 0.58 0.57 0.57 0.65 0.71 0.72 0.59 0.55 0.59 0.60 0.56 0.48 0.41 0.43 0.38 0.37 0.38 0.34 0.34 0.34 0.31 0.27 0.28 0.31 0.33 0.46 0.51 0.52 0.48 0.54
1.10 1.08 1.07 1.12 1.15 1.14 1.08 1.04 1.05 1.08 1.10 1.04 1.09 1.13 0.93 0.72 0.63 0.70 0.67 0.71 0.67 0.72 0.69 0.69 0.61 0.64 0.61 0.53 0.46 0.40 0.36 0.43 0.51 0.50 0.57 0.38 0.40 0.32 0.29 0.26 0.23 0.41 0.59 0.59 0.50 0.33 0.69
1.05 1.04 1.08 1.07 1.07 1.04 1.02 1.02 1.06 1.09 1.07 1.07 1.08 1.19 0.93 0.72 0.74 0.81 0.68 0.70 0.85 0.83 0.75 0.71 0.69 0.57 0.60 0.50 0.43 0.44 0.44 0.50 0.45 0.40 0.46 0.47 0.41 0.34 0.32 0.28 0.29 0.54 0.64 0.61 0.34 0.48 0.74
0.98 1.03 1.04 1.05 1.02 0.99 0.95 0.97 1.04 1.07 1.09 1.11 1.09 1.20 1.05 0.85 0.81 0.87 0.86 0.76 0.74 0.85 0.74 0.80 0.70 0.65 0.55 0.47 0.46 0.47 0.49 0.55 0.53 0.51 0.40 0.40 0.42 0.40 0.37 0.30 0.27 0.66 0.60 0.46 0.63 0.66 0.66
0.95 1.01 1.03 1.02 1.00 0.95 0.95 0.99 0.99 1.03 1.13 1.12 1.00 1.18 1.16 0.96 0.84 0.95 0.90 0.87 0.81 0.85 0.85 0.88 0.73 0.67 0.61 0.55 0.52 0.51 0.51 0.61 0.53 0.47 0.61 0.41 0.37 0.39 0.39 0.40 0.59 0.70 0.67 0.66 0.62 0.58 0.52

GFSGBSN_prec_pwat_135.txt.gz
Precipitable_Water
0.72 0.73 0.72 0.69 0.67 0.64 0.61 0.59 0.57 0.55 0.54 0.54 0.54 0.53 0.52 0.50 0.53 0.53 0.56 0.55 0.54 0.53 0.51 0.49 0.48 0.45 0.43 0.49 0.51 0.67 0.45 0.33 0.38 0.44 0.51 0.71 0.72 0.83 1.06 1.20 1.33 1.10 1.32 1.38 1.31 1.50 1.44
0.70 0.69 0.68 0.66 0.63 0.59 0.56 0.54 0.53 0.52 0.52 0.51 0.52 0.52 0.50 0.51 0.52 0.56 0.57 0.55 0.53 0.52 0.50 0.48 0.47 0.48 0.47 0.43 0.66 0.64 0.31 0.39 0.45 0.41 0.61 0.74 0.82 1.21 1.15 1.21 1.30 1.17 1.30 1.28 1.40 1.43 1.37
0.68 0.68 0.69 0.67 0.64 0.58 0.55 0.54 0.53 0.52 0.50 0.48 0.49 0.49 0.47 0.51 0.53 0.56 0.57 0.53 0.50 0.52 0.49 0.47 0.51 0.59 0.57 0.51 0.66 0.55 0.29 0.33 0.42 0.45 0.48 0.61 1.01 1.09 1.27 1.05 1.12 1.03 1.02 1.08 1.22 1.36 1.35
0.68 0.66 0.66 0.65 0.66 0.64 0.60 0.58 0.55 0.52 0.49 0.48 0.47 0.46 0.45 0.51 0.51 0.55 0.55 0.55 0.50 0.50 0.54 0.62 0.66 0.67 0.44 0.54 0.58 0.38 0.36 0.31 0.34 0.38 0.46 0.67 1.12 1.16 0.94 1.01 1.08 1.30 1.11 0.87 1.11 1.20 1.31
0.79 0.78 0.73 0.67 0.64 0.63 0.62 0.59 0.57 0.54 0.51 0.47 0.45 0.43 0.45 0.51 0.52 0.54 0.55 0.56 0.59 0.64 0.69 0.72 0.75 0.75 0.46 0.49 0.38 0.48 0.39 0.31 0.30 0.30 0.43 0.60 0.71 0.80 0.78 0.77 0.85 1.04 0.83 0.87 0.96 1.13 1.17
0.68 0.69 0.72 0.77 0.75 0.68 0.64 0.62 0.58 0.56 0.53 0.49 0.44 0.41 0.48 0.51 0.53 0.59 0.60 0.58 0.61 0.64 0.80 0.78 0.70 0.64 0.58 0.41 0.47 0.52 0.50 0.40 0.28 0.27 0.29 0.29 0.49 0.47 0.65 0.65 0.55 0.77 0.81 0.86 0.90 1.05 1.13
0.80 0.73 0.68 0.66 0.68 0.74 0.71 0.66 0.61 0.58 0.56 0.51 0.44 0.40 0.49 0.51 0.55 0.61 0.66 0.69 0.65 0.53 0.53 0.43 0.48 0.47 0.41 0.41 0.41 0.43 0.33 0.27 0.28 0.23 0.20 0.32 0.34 0.47 0.60 0.69 0.79 0.79 0.77 0.72 0.94 1.09 1.00
0.83 0.82 0.81 0.77 0.69 0.65 0.68 0.68 0.66 0.61 0.58 0.52 0.45 0.40 0.49 0.50 0.54 0.64 0.65 0.54 0.51 0.52 0.40 0.51 0.42 0.41 0.39 0.41 0.36 0.40 0.30 0.22 0.19 0.16 0.25 0.30 0.33 0.58 0.69 0.69 0.68 0.69 0.74 0.76 0.91 1.02 1.05
0.89 0.87 0.86 0.85 0.83 0.78 0.70 0.66 0.66 0.64 0.60 0.55 0.48 0.40 0.47 0.51 0.52 0.57 0.55 0.56 0.64 0.62 0.46 0.46 0.44 0.45 0.40 0.42 0.38 0.35 0.32 0.31 0.26 0.20 0.24 0.35 0.47 0.57 0.55 0.57 0.55 0.47 0.63 0.79 0.75 0.96 0.99
0.87 0.87 0.87 0.86 0.85 0.84 0.81 0.74 0.65 0.63 0.60 0.58 0.51 0.43 0.43 0.48 0.47 0.54 0.51 0.61 0.70 0.70 0.42 0.41 0.39 0.42 0.44 0.45 0.37 0.42 0.42 0.39 0.35 0.24 0.24 0.25 0.39 0.41 0.52 0.50 0.48 0.42 0.70 0.70 0.66 0.73 0.61
0.89 0.87 0.85 0.85 0.85 0.84 0.82 0.80 0.76 0.65 0.61 0.57 0.56 0.46 0.39 0.49 0.47 0.45 0.51 0.61 0.66 0.69 0.33 0.42 0.40 0.46 0.43 0.40 0.39 0.38 0.41 0.38 0.33 0.31 0.30 0.27 0.33 0.34 0.44 0.47 0.47 0.43 0.59 0.60 0.66 0.64 0.61
0.92 0.90 0.89 0.88 0.87 0.85 0.84 0.82 0.79 0.75 0.62 0.58 0.53 0.49 0.40 0.38 0.48 0.46 0.55 0.59 0.64 0.47 0.34 0.39 0.41 0.37 0.38 0.40 0.39 0.38 0.31 0.37 0.39 0.37 0.33 0.33 0.40 0.44 0.44 0.40 0.43 0.43 0.42 0.47 0.60 0.55 0.42
0.98 0.95 0.93 0.92 0.91 0.89 0.86 0.82 0.79 0.78 0.70 0.58 0.52 0.48 0.40 0.35 0.30 0.52 0.51 0.57 0.44 0.36 0.43 0.38 0.36 0.35 0.40 0.40 0.38 0.36 0.34 0.28 0.30 0.27 0.29 0.34 0.37 0.40 0.38 0.31 0.39 0.36 0.32 0.27 0.30 0.38 0.44
1.02 1.02 1.03 1.01 0.99 0.95 0.90 0.86 0.80 0.77 0.75 0.61 0.49 0.44 0.38 0.32 0.36 0.45 0.47 0.45 0.37 0.49 0.40 0.41 0.37 0.31 0.38 0.42 0.39 0.37 0.34 0.35 0.40 0.34 0.32 0.31 0.31 0.37 0.37 0.31 0.26 0.28 0.36 0.37 0.30 0.36 0.48
1.17 1.14 1.12 1.10 1.09 1.07 1.01 0.93 0.83 0.80 0.77 0.69 0.50 0.39 0.44 0.30 0.39 0.42 0.41 0.38 0.41 0.47 0.40 0.35 0.34 0.30 0.36 0.43 0.40 0.38 0.36 0.38 0.41 0.37 0.29 0.34 0.38 0.39 0.39 0.35 0.35 0.29 0.35 0.56 0.53 0.58 0.51
1.26 1.24 1.23 1.21 1.20 1.18 1.14 1.04 0.94 0.84 0.80 0.73 0.45 0.34 0.44 0.60 0.49 0.49 0.39 0.38 0.47 0.52 0.42 0.35 0.30 0.40 0.40 0.43 0.42 0.40 0.42 0.45 0.41 0.44 0.40 0.39 0.34 0.44 0.53 0.50 0.56 0.48 0.55 0.41 0.49 0.38 0.42
1.33 1.30 1.30 1.28 1.26 1.22 1.18 1.13 1.03 0.97 0.90 0.77 0.47 0.36 0.66 0.73 0.60 0.45 0.30 0.41 0.49 0.57 0.45 0.34 0.31 0.35 0.41 0.41 0.43 0.40 0.48 0.53 0.50 0.46 0.42 0.40 0.34 0.37 0.46 0.51 0.51 0.52 0.49 0.49 0.52 0.58 0.48
1.34 1.30 1.31 1.30 1.30 1.26 1.22 1.18 1.08 1.03 1.01 0.89 0.57 0.34 0.74 0.76 0.51 0.47 0.29 0.48 0.53 0.51 0.46 0.41 0.34 0.38 0.37 0.44 0.42 0.38 0.44 0.51 0.56 0.49 0.39 0.44 0.41 0.36 0.50 0.61 0.66 0.61 0.53 0.52 0.42 0.42 0.54
1.41 1.36 1.34 1.33 1.31 1.27 1.26 1.22 1.13 1.07 1.05 0.91 0.63 0.44 0.68 0.73 0.49 0.47 0.44 0.46 0.51 0.51 0.47 0.40 0.33 0.38 0.37 0.37 0.39 0.43 0.51 0.57 0.57 0.52 0.46 0.39 0.39 0.33 0.43 0.49 0.56 0.52 0.56 0.58 0.51 0.55 0.50
1.46 1.42 1.36 1.33 1.32 1.29 1.25 1.22 1.16 1.10 1.07 0.93 0.72 0.47 0.49 0.63 0.64 0.56 0.47 0.48 0.47 0.61 0.52 0.45 0.43 0.42 0.41 0.36 0.39 0.39 0.47 0.51 0.52 0.49 0.47 0.34 0.27 0.37 0.31 0.39 0.51 0.48 0.50 0.64 0.61 0.48 0.51
1.42 1.38 1.33 1.29 1.26 1.23 1.20 1.17 1.15 1.11 1.07 0.95 0.76 0.64 0.70 0.53 0.59 0.65 0.62 0.60 0.50 0.53 0.62 0.52 0.43 0.41 0.40 0.35 0.35 0.34 0.37 0.45 0.45 0.49 0.46 0.42 0.24 0.30 0.38 0.42 0.48 0.48 0.47 0.57 0.54 0.55 0.48
1.38 1.32 1.29 1.23 1.18 1.15 1.10 1.11 1.14 1.08 1.06 0.89 0.72 0.72 0.77 0.60 0.64 0.59 0.58 0.56 0.58 0.55 0.61 0.55 0.47 0.45 0.43 0.39 0.40 0.36 0.42 0.43 0.41 0.47 0.49 0.55 0.37 0.40 0.36 0.44 0.44 0.40 0.49 0.54 0.54 0.58 0.57
1.34 1.29 1.24 1.17 1.12 1.08 1.07 1.09 1.09 1.10 1.08 0.90 0.97 0.95 0.78 0.62 0.60 0.57 0.56 0.58 0.52 0.59 0.64 0.65 0.62 0.59 0.47 0.47 0.51 0.46 0.48 0.47 0.45 0.41 0.41 0.44 0.46 0.39 0.31 0.44 0.42 0.41 0.48 0.49 0.56 0.66 0.64
1.28 1.23 1.19 1.14 1.11 1.06 1.06 1.12 1.12 1.11 1.11 0.99 0.95 0.93 0.74 0.55 0.61 0.58 0.59 0.63 0.58 0.59 0.60 0.64 0.68 0.63 0.61 0.60 0.56 0.53 0.49 0.47 0.43 0.37 0.37 0.37 0.35 0.38 0.29 0.33 0.27 0.39 0.54 0.46 0.57 0.69 0.73
1.18 1.16 1.16 1.10 1.07 1.08 1.10 1.13 1.11 1.13 1.13 1.02 0.99 0.92 0.80 0.62 0.69 0.66 0.63 0.60 0.69 0.69 0.69 0.69 0.70 0.68 0.69 0.61 0.51 0.45 0.43 0.43 0.40 0.42 0.41 0.38 0.35 0.33 0.27 0.24 0.27 0.33 0.53 0.51 0.51 0.63 0.79
1.18 1.15 1.11 1.09 1.05 1.05 1.07 1.06 1.06 1.10 1.12 0.98 0.97 1.08 0.96 0.73 0.62 0.75 0.69 0.68 0.61 0.68 0.70 0.74 0.80 0.76 0.65 0.56 0.48 0.38 0.35 0.40 0.41 0.48 0.47 0.42 0.41 0.31 0.29 0.25 0.24 0.49 0.58 0.63 0.55 0.48 0.82
1.02 0.96 0.96 0.95 0.98 1.01 1.01 1.03 1.04 1.09 1.06 0.99 0.93 1.13 1.00 0.77 0.75 0.76 0.69 0.71 0.79 0.71 0.70 0.76 0.76 0.70 0.67 0.53 0.45 0.40 0.42 0.51 0.46 0.49 0.49 0.48 0.42 0.36 0.35 0.28 0.29 0.60 0.66 0.64 0.36 0.54 0.80
0.90 0.90 0.90 0.92 0.97 1.00 1.02 1.00 1.03 1.02 1.00 0.97 0.94 1.16 1.04 0.88 0.84 0.87 0.86 0.75 0.77 0.77 0.71 0.86 0.75 0.72 0.60 0.49 0.48 0.45 0.45 0.52 0.53 0.58 0.54 0.46 0.45 0.41 0.42 0.37 0.35 0.63 0.63 0.55 0.68 0.75 0.82
0.87 0.88 0.90 0.92 0.99 1.01 1.01 1.01 0.99 0.99 0.99 1.01 0.88 1.14 1.17 0.95 0.83 0.97 0.94 0.92 0.88 0.87 0.79 0.88 0.86 0.78 0.78 0.64 0.54 0.52 0.49 0.55 0.54 0.48 0.63 0.46 0.48 0.42 0.44 0.44 0.58 0.65 0.60 0.64 0.67 0.67 0.72

GFSGBSN_prec_pwat_138.txt.gz
Precipitable_Water
0.69 0.69 0.65 0.61 0.58 0.55 0.54 0.53 0.54 0.53 0.53 0.53 0.53 0.52 0.50 0.50 0.51 0.54 0.55 0.55 0.54 0.53 0.51 0.49 0.47 0.46 0.44 0.46 0.51 0.74 0.54 0.44 0.38 0.50 0.67 0.86 0.86 0.80 1.04 1.30 1.25 1.14 1.37 1.45 1.43 1.48 1.53
0.66 0.67 0.67 0.66 0.62 0.59 0.57 0.55 0.53 0.52 0.50 0.50 0.50 0.49 0.48 0.50 0.53 0.56 0.54 0.52 0.50 0.50 0.51 0.48 0.46 0.50 0.53 0.39 0.66 0.67 0.37 0.33 0.39 0.47 0.71 0.80 0.71 1.15 1.23 1.22 1.07 1.29 1.41 1.36 1.43 1.50 1.37
0.75 0.71 0.68 0.65 0.64 0.61 0.58 0.58 0.56 0.53 0.51 0.48 0.47 0.46 0.45 0.50 0.53 0.55 0.54 0.51 0.49 0.51 0.47 0.48 0.55 0.64 0.52 0.43 0.63 0.52 0.28 0.41 0.45 0.58 0.63 0.63 0.75 0.92 1.27 1.24 1.20 1.26 1.18 1.22 1.28 1.42 1.36
0.68 0.74 0.76 0.74 0.71 0.68 0.64 0.60 0.58 0.56 0.52 0.48 0.45 0.43 0.45 0.49 0.53 0.56 0.57 0.53 0.50 0.58 0.60 0.64 0.62 0.64 0.37 0.63 0.58 0.43 0.36 0.33 0.37 0.46 0.64 0.62 0.86 1.12 1.12 1.19 1.11 1.03 1.18 0.96 1.11 1.22 1.28
0.73 0.68 0.66 0.67 0.70 0.70 0.69 0.66 0.61 0.58 0.55 0.50 0.44 0.41 0.47 0.49 0.53 0.55 0.59 0.62 0.62 0.69 0.73 0.72 0.77 0.72 0.40 0.56 0.37 0.43 0.41 0.32 0.34 0.35 0.49 0.61 0.67 1.03 0.99 0.85 0.84 1.01 0.88 0.88 0.92 1.16 1.20
0.82 0.81 0.80 0.76 0.70 0.68 0.68 0.67 0.65 0.62 0.59 0.53 0.47 0.45 0.48 0.49 0.56 0.58 0.57 0.62 0.70 0.68 0.76 0.79 0.69 0.51 0.52 0.37 0.43 0.47 0.49 0.41 0.30 0.28 0.37 0.47 0.46 0.60 0.71 0.68 0.54 0.74 0.82 0.84 0.79 1.02 1.12
0.88 0.87 0.86 0.84 0.82 0.78 0.72 0.69 0.66 0.62 0.60 0.56 0.49 0.45 0.49 0.52 0.58 0.65 0.64 0.62 0.52 0.48 0.51 0.39 0.42 0.44 0.45 0.42 0.46 0.39 0.36 0.28 0.27 0.25 0.22 0.28 0.33 0.47 0.61 0.67 0.71 0.79 0.76 0.71 0.76 0.95 0.93
0.86 0.85 0.85 0.84 0.82 0.80 0.78 0.74 0.70 0.67 0.62 0.58 0.52 0.45 0.49 0.49 0.56 0.62 0.63 0.49 0.50 0.54 0.41 0.49 0.47 0.49 0.49 0.41 0.35 0.34 0.34 0.22 0.20 0.16 0.23 0.24 0.30 0.57 0.65 0.67 0.77 0.70 0.67 0.63 0.74 0.93 0.95
0.86 0.85 0.84 0.83 0.83 0.83 0.82 0.79 0.74 0.68 0.65 0.59 0.54 0.47 0.46 0.46 0.51 0.56 0.54 0.56 0.66 0.65 0.45 0.42 0.46 0.44 0.41 0.40 0.34 0.37 0.34 0.28 0.22 0.20 0.26 0.32 0.44 0.51 0.50 0.53 0.66 0.68 0.58 0.62 0.63 0.79 0.95
0.87 0.85 0.84 0.85 0.85 0.84 0.82 0.81 0.78 0.73 0.66 0.62 0.56 0.50 0.44 0.45 0.42 0.52 0.49 0.59 0.63 0.66 0.38 0.40 0.40 0.43 0.43 0.44 0.35 0.43 0.40 0.35 0.31 0.26 0.26 0.31 0.40 0.35 0.49 0.48 0.48 0.48 0.71 0.71 0.65 0.63 0.50
0.94 0.94 0.95 0.93 0.90 0.88 0.85 0.82 0.77 0.74 0.71 0.64 0.58 0.52 0.45 0.45 0.39 0.43 0.49 0.62 0.62 0.62 0.27 0.44 0.41 0.50 0.45 0.39 0.39 0.38 0.41 0.35 0.29 0.30 0.31 0.30 0.31 0.35 0.41 0.49 0.51 0.44 0.73 0.71 0.71 0.63 0.62
1.00 0.99 0.98 0.98 0.97 0.96 0.92 0.85 0.79 0.74 0.70 0.69 0.60 0.54 0.47 0.35 0.44 0.44 0.57 0.58 0.66 0.40 0.27 0.37 0.40 0.38 0.39 0.40 0.39 0.41 0.31 0.37 0.39 0.34 0.34 0.35 0.38 0.39 0.46 0.43 0.41 0.45 0.44 0.50 0.64 0.62 0.47
1.12 1.12 1.10 1.07 1.04 1.01 0.98 0.95 0.87 0.76 0.71 0.69 0.64 0.54 0.44 0.38 0.22 0.45 0.51 0.55 0.42 0.31 0.47 0.37 0.36 0.36 0.37 0.37 0.38 0.39 0.32 0.35 0.32 0.28 0.28 0.34 0.36 0.41 0.43 0.33 0.38 0.36 0.34 0.27 0.28 0.38 0.37
1.21 1.21 1.19 1.17 1.15 1.11 1.08 1.05 0.96 0.86 0.75 0.69 0.64 0.50 0.42 0.33 0.31 0.41 0.46 0.45 0.36 0.44 0.43 0.45 0.38 0.33 0.34 0.40 0.39 0.38 0.35 0.34 0.38 0.34 0.30 0.30 0.29 0.38 0.40 0.34 0.30 0.32 0.28 0.24 0.24 0.29 0.34
1.24 1.22 1.22 1.20 1.21 1.19 1.18 1.12 1.06 0.99 0.86 0.79 0.65 0.45 0.35 0.39 0.37 0.43 0.36 0.29 0.42 0.44 0.44 0.33 0.34 0.32 0.39 0.42 0.43 0.41 0.37 0.36 0.39 0.38 0.30 0.31 0.35 0.38 0.37 0.38 0.33 0.34 0.34 0.53 0.42 0.48 0.38
1.27 1.26 1.27 1.23 1.22 1.21 1.20 1.16 1.08 1.02 0.95 0.93 0.67 0.42 0.38 0.39 0.37 0.36 0.31 0.35 0.48 0.53 0.49 0.43 0.31 0.34 0.34 0.39 0.40 0.42 0.41 0.42 0.41 0.44 0.43 0.38 0.33 0.43 0.53 0.55 0.58 0.47 0.54 0.36 0.41 0.28 0.26
1.34 1.34 1.34 1.33 1.28 1.26 1.23 1.17 1.12 1.05 0.99 0.93 0.73 0.40 0.66 0.65 0.52 0.40 0.26 0.29 0.47 0.54 0.52 0.42 0.37 0.33 0.37 0.39 0.41 0.41 0.44 0.49 0.51 0.48 0.49 0.39 0.35 0.40 0.49 0.50 0.48 0.49 0.46 0.50 0.51 0.47 0.30
1.39 1.39 1.39 1.40 1.34 1.27 1.22 1.19 1.12 1.09 1.02 0.90 0.74 0.43 0.76 0.80 0.48 0.44 0.35 0.41 0.44 0.46 0.51 0.45 0.41 0.36 0.36 0.39 0.42 0.40 0.42 0.47 0.52 0.50 0.43 0.45 0.38 0.36 0.43 0.57 0.59 0.53 0.48 0.48 0.39 0.39 0.51
1.43 1.43 1.41 1.36 1.32 1.27 1.18 1.16 1.12 1.09 1.09 0.88 0.63 0.59 0.74 0.68 0.49 0.47 0.51 0.47 0.58 0.56 0.52 0.48 0.39 0.36 0.38 0.36 0.36 0.44 0.46 0.54 0.56 0.52 0.45 0.44 0.38 0.32 0.38 0.43 0.50 0.45 0.48 0.52 0.52 0.56 0.45
1.44 1.42 1.38 1.34 1.30 1.23 1.16 1.10 1.03 1.07 1.09 0.95 0.68 0.50 0.62 0.69 0.68 0.59 0.54 0.54 0.56 0.65 0.58 0.55 0.43 0.42 0.37 0.35 0.38 0.38 0.42 0.49 0.51 0.48 0.47 0.43 0.34 0.29 0.27 0.34 0.41 0.42 0.47 0.52 0.56 0.46 0.45
1.45 1.41 1.37 1.32 1.27 1.21 1.12 1.08 1.02 1.02 1.08 0.93 0.74 0.64 0.71 0.56 0.62 0.64 0.61 0.53 0.52 0.54 0.57 0.59 0.51 0.46 0.40 0.35 0.36 0.36 0.40 0.44 0.49 0.50 0.46 0.45 0.32 0.25 0.32 0.41 0.44 0.44 0.43 0.47 0.47 0.51 0.47
1.45 1.39 1.33 1.30 1.26 1.18 1.11 1.08 1.01 1.02 1.02 0.90 0.73 0.70 0.75 0.67 0.67 0.63 0.59 0.53 0.54 0.59 0.59 0.55 0.58 0.53 0.46 0.41 0.40 0.35 0.38 0.41 0.40 0.46 0.45 0.50 0.41 0.40 0.34 0.43 0.45 0.39 0.40 0.44 0.51 0.57 0.59
1.34 1.31 1.26 1.20 1.16 1.13 1.10 1.07 1.04 1.06 1.04 0.84 0.93 0.93 0.80 0.62 0.60 0.57 0.57 0.60 0.60 0.65 0.69 0.66 0.69 0.59 0.53 0.52 0.50 0.48 0.45 0.44 0.44 0.40 0.39 0.41 0.40 0.38 0.33 0.37 0.37 0.34 0.43 0.48 0.55 0.63 0.63
1.30 1.27 1.22 1.17 1.15 1.14 1.07 1.06 1.06 1.08 1.10 0.98 0.93 0.89 0.74 0.57 0.60 0.56 0.59 0.67 0.63 0.65 0.61 0.69 0.74 0.65 0.68 0.70 0.58 0.54 0.50 0.46 0.44 0.44 0.44 0.40 0.37 0.37 0.31 0.34 0.25 0.41 0.50 0.53 0.54 0.59 0.68
1.21 1.18 1.15 1.12 1.11 1.10 1.07 1.04 1.03 1.07 1.13 1.01 0.97 0.88 0.81 0.60 0.63 0.60 0.62 0.62 0.65 0.68 0.70 0.68 0.78 0.80 0.77 0.62 0.54 0.47 0.45 0.43 0.43 0.46 0.44 0.40 0.36 0.33 0.29 0.27 0.29 0.28 0.55 0.55 0.49 0.55 0.68
1.08 1.07 1.02 0.98 0.97 0.98 0.98 0.98 0.99 1.02 1.09 1.03 0.97 1.01 0.89 0.67 0.55 0.72 0.67 0.67 0.62 0.61 0.64 0.73 0.86 0.88 0.73 0.58 0.53 0.44 0.40 0.43 0.40 0.40 0.44 0.42 0.41 0.34 0.34 0.26 0.22 0.44 0.60 0.73 0.69 0.50 0.73
1.01 0.98 0.95 0.92 0.92 0.93 0.96 0.96 0.96 1.00 1.05 1.00 0.94 1.06 0.92 0.71 0.74 0.79 0.66 0.66 0.75 0.71 0.61 0.74 0.79 0.76 0.76 0.54 0.47 0.45 0.43 0.49 0.43 0.41 0.42 0.43 0.43 0.37 0.32 0.28 0.29 0.53 0.61 0.66 0.42 0.47 0.76
0.95 0.93 0.91 0.91 0.92 0.92 0.95 1.01 1.01 1.02 1.01 0.93 0.87 1.05 0.90 0.77 0.84 0.87 0.87 0.77 0.73 0.72 0.64 0.74 0.75 0.77 0.71 0.58 0.51 0.50 0.47 0.50 0.50 0.53 0.51 0.49 0.46 0.41 0.43 0.37 0.32 0.58 0.54 0.45 0.62 0.76 0.75
0.98 0.98 0.97 0.95 0.95 0.93 0.94 1.00 0.99 1.01 0.98 0.94 0.73 0.98 1.03 0.88 0.82 0.96 0.96 0.98 0.92 0.86 0.78 0.77 0.76 0.82 0.77 0.65 0.65 0.57 0.48 0.55 0.51 0.43 0.62 0.49 0.56 0.49 0.48 0.46 0.57 0.63 0.56 0.65 0.68 0.65 0.67

GFSGBSN_prec_pwat_141.txt.gz
Precipitable_Water
0.70 0.68 0.66 0.63 0.60 0.58 0.57 0.55 0.54 0.52 0.51 0.51 0.51 0.50 0.49 0.50 0.52 0.55 0.54 0.53 0.52 0.52 0.51 0.48 0.45 0.47 0.51 0.48 0.47 0.72 0.54 0.61 0.54 0.67 0.79 0.81 0.71 0.91 1.05 1.17 1.21 1.20 1.29 1.39 1.43 1.39 1.43
0.75 0.74 0.72 0.70 0.68 0.64 0.60 0.58 0.56 0.53 0.51 0.49 0.48 0.45 0.46 0.49 0.53 0.54 0.54 0.53 0.50 0.50 0.49 0.45 0.47 0.62 0.56 0.34 0.66 0.66 0.40 0.35 0.44 0.64 0.79 0.74 0.75 1.11 1.20 1.09 1.08 1.28 1.34 1.40 1.44 1.40 1.47
0.67 0.67 0.69 0.71 0.70 0.69 0.67 0.63 0.60 0.57 0.53 0.50 0.47 0.45 0.46 0.50 0.54 0.55 0.54 0.51 0.48 0.48 0.47 0.52 0.62 0.65 0.47 0.37 0.61 0.48 0.34 0.35 0.48 0.58 0.68 0.73 0.70 0.81 1.16 1.09 1.25 1.31 1.22 1.30 1.28 1.29 1.33
0.80 0.78 0.75 0.73 0.72 0.71 0.69 0.66 0.63 0.61 0.57 0.52 0.48 0.47 0.49 0.51 0.54 0.57 0.58 0.58 0.61 0.66 0.66 0.68 0.67 0.69 0.39 0.63 0.63 0.41 0.42 0.37 0.48 0.68 0.66 0.74 0.74 1.01 1.11 1.24 1.13 1.05 1.19 0.94 1.16 1.18 1.31
0.87 0.85 0.83 0.80 0.78 0.74 0.72 0.69 0.67 0.63 0.60 0.55 0.49 0.49 0.50 0.51 0.54 0.58 0.59 0.61 0.65 0.69 0.74 0.76 0.73 0.61 0.38 0.60 0.42 0.41 0.42 0.36 0.41 0.52 0.60 0.65 0.72 1.06 1.05 0.85 0.81 0.89 0.80 0.86 0.95 1.20 1.17
0.85 0.84 0.83 0.83 0.83 0.81 0.78 0.73 0.70 0.66 0.62 0.57 0.51 0.50 0.50 0.51 0.53 0.59 0.64 0.69 0.74 0.74 0.77 0.78 0.70 0.45 0.49 0.38 0.38 0.42 0.45 0.43 0.35 0.38 0.50 0.54 0.63 0.82 0.83 0.71 0.54 0.74 0.75 0.80 0.80 0.96 1.13
0.84 0.83 0.83 0.82 0.82 0.82 0.82 0.80 0.73 0.69 0.64 0.59 0.52 0.49 0.50 0.57 0.61 0.65 0.62 0.60 0.48 0.47 0.52 0.39 0.39 0.42 0.45 0.49 0.48 0.41 0.42 0.31 0.30 0.28 0.32 0.46 0.41 0.45 0.53 0.70 0.73 0.73 0.73 0.65 0.82 1.02 0.96
0.87 0.85 0.84 0.84 0.83 0.82 0.80 0.78 0.77 0.72 0.66 0.62 0.56 0.49 0.49 0.53 0.57 0.61 0.62 0.47 0.47 0.51 0.38 0.47 0.47 0.45 0.50 0.45 0.32 0.32 0.38 0.23 0.23 0.20 0.25 0.24 0.34 0.48 0.64 0.66 0.64 0.70 0.63 0.61 0.75 0.92 0.91
0.90 0.90 0.90 0.90 0.88 0.86 0.84 0.80 0.76 0.72 0.69 0.64 0.60 0.52 0.47 0.46 0.51 0.54 0.50 0.50 0.61 0.59 0.43 0.43 0.47 0.43 0.41 0.44 0.35 0.30 0.34 0.24 0.20 0.19 0.23 0.25 0.45 0.53 0.51 0.47 0.56 0.69 0.57 0.57 0.60 0.76 0.91
0.98 0.97 0.96 0.95 0.93 0.91 0.90 0.88 0.80 0.74 0.69 0.66 0.63 0.59 0.47 0.47 0.38 0.47 0.47 0.58 0.64 0.64 0.38 0.38 0.41 0.41 0.43 0.44 0.36 0.41 0.38 0.31 0.27 0.27 0.31 0.36 0.39 0.37 0.40 0.41 0.54 0.56 0.63 0.66 0.69 0.59 0.53
1.05 1.07 1.07 1.05 1.02 0.98 0.94 0.90 0.87 0.80 0.71 0.65 0.66 0.62 0.54 0.46 0.37 0.39 0.48 0.61 0.66 0.62 0.25 0.42 0.41 0.51 0.47 0.41 0.39 0.36 0.41 0.35 0.29 0.29 0.36 0.35 0.36 0.35 0.38 0.49 0.58 0.45 0.65 0.62 0.72 0.63 0.62
1.16 1.16 1.13 1.12 1.08 1.06 1.03 0.99 0.94 0.87 0.79 0.68 0.65 0.66 0.58 0.37 0.38 0.41 0.47 0.60 0.63 0.40 0.26 0.38 0.41 0.39 0.40 0.42 0.38 0.40 0.35 0.38 0.36 0.31 0.35 0.38 0.41 0.38 0.44 0.46 0.43 0.58 0.58 0.64 0.69 0.66 0.44
1.17 1.15 1.13 1.11 1.07 1.05 1.07 1.06 1.03 0.96 0.92 0.79 0.66 0.64 0.57 0.46 0.18 0.41 0.44 0.55 0.39 0.32 0.47 0.36 0.35 0.37 0.37 0.37 0.38 0.38 0.36 0.35 0.31 0.28 0.28 0.34 0.35 0.39 0.43 0.40 0.37 0.40 0.40 0.29 0.34 0.39 0.34
1.20 1.19 1.16 1.14 1.14 1.13 1.10 1.09 1.07 1.00 0.94 0.91 0.79 0.65 0.55 0.43 0.36 0.33 0.40 0.40 0.32 0.41 0.41 0.43 0.37 0.36 0.33 0.39 0.38 0.38 0.37 0.34 0.37 0.35 0.32 0.32 0.30 0.39 0.41 0.37 0.31 0.33 0.30 0.24 0.19 0.23 0.29
1.22 1.24 1.23 1.20 1.23 1.23 1.18 1.12 1.07 1.01 0.97 0.89 0.84 0.72 0.48 0.44 0.43 0.36 0.33 0.28 0.38 0.43 0.48 0.39 0.34 0.31 0.32 0.38 0.40 0.40 0.38 0.37 0.39 0.37 0.30 0.31 0.33 0.45 0.42 0.40 0.34 0.32 0.33 0.45 0.37 0.41 0.31
1.31 1.27 1.25 1.26 1.29 1.31 1.25 1.15 1.07 1.00 0.98 0.94 0.75 0.64 0.55 0.53 0.45 0.37 0.30 0.24 0.43 0.54 0.48 0.43 0.34 0.34 0.32 0.37 0.38 0.39 0.39 0.43 0.39 0.41 0.42 0.38 0.32 0.48 0.50 0.54 0.50 0.45 0.56 0.38 0.40 0.25 0.21
1.38 1.34 1.33 1.33 1.31 1.27 1.23 1.16 1.06 0.99 0.97 0.94 0.74 0.50 0.68 0.65 0.43 0.36 0.23 0.23 0.46 0.55 0.49 0.44 0.40 0.36 0.34 0.36 0.40 0.39 0.41 0.44 0.47 0.48 0.51 0.46 0.35 0.41 0.50 0.49 0.48 0.50 0.46 0.48 0.49 0.43 0.30
1.43 1.39 1.36 1.33 1.31 1.27 1.23 1.17 1.08 0.98 0.94 0.91 0.72 0.48 0.74 0.79 0.42 0.41 0.29 0.30 0.51 0.53 0.55 0.51 0.48 0.41 0.36 0.36 0.40 0.40 0.42 0.45 0.51 0.50 0.43 0.47 0.42 0.33 0.43 0.57 0.60 0.53 0.45 0.44 0.33 0.34 0.45
1.44 1.41 1.37 1.34 1.30 1.27 1.23 1.15 1.06 1.02 0.97 0.87 0.65 0.62 0.83 0.75 0.50 0.44 0.49 0.48 0.54 0.55 0.54 0.54 0.47 0.46 0.41 0.36 0.36 0.43 0.45 0.50 0.53 0.50 0.45 0.47 0.42 0.35 0.37 0.40 0.48 0.43 0.47 0.48 0.46 0.51 0.43
1.45 1.40 1.38 1.34 1.31 1.29 1.24 1.15 1.04 1.01 1.00 0.87 0.69 0.51 0.67 0.72 0.71 0.57 0.51 0.49 0.46 0.59 0.61 0.58 0.52 0.52 0.39 0.35 0.39 0.38 0.43 0.50 0.53 0.50 0.50 0.44 0.39 0.33 0.27 0.33 0.37 0.36 0.44 0.49 0.46 0.39 0.42
1.43 1.37 1.32 1.28 1.26 1.23 1.19 1.13 1.06 1.02 1.01 0.87 0.74 0.62 0.71 0.54 0.62 0.63 0.60 0.53 0.48 0.51 0.63 0.64 0.58 0.57 0.45 0.36 0.35 0.36 0.39 0.42 0.49 0.53 0.45 0.43 0.33 0.33 0.32 0.36 0.39 0.41 0.42 0.44 0.42 0.46 0.42
1.37 1.29 1.27 1.25 1.22 1.17 1.15 1.13 1.08 1.05 1.05 0.84 0.69 0.71 0.76 0.63 0.66 0.62 0.61 0.55 0.53 0.54 0.60 0.60 0.57 0.63 0.54 0.43 0.40 0.37 0.39 0.40 0.39 0.48 0.45 0.48 0.38 0.39 0.35 0.38 0.39 0.39 0.41 0.41 0.43 0.50 0.53
1.32 1.32 1.28 1.23 1.17 1.14 1.15 1.14 1.11 1.05 1.05 0.78 0.86 0.89 0.78 0.67 0.61 0.53 0.55 0.60 0.61 0.64 0.61 0.70 0.66 0.65 0.59 0.55 0.54 0.53 0.47 0.46 0.43 0.41 0.40 0.42 0.38 0.34 0.30 0.38 0.36 0.33 0.39 0.39 0.43 0.52 0.56
1.30 1.23 1.18 1.12 1.10 1.08 1.08 1.08 1.06 1.03 1.05 0.96 0.90 0.85 0.71 0.59 0.62 0.58 0.58 0.62 0.61 0.65 0.60 0.64 0.74 0.69 0.70 0.76 0.60 0.55 0.51 0.48 0.45 0.43 0.43 0.38 0.38 0.37 0.32 0.35 0.25 0.36 0.48 0.50 0.50 0.58 0.62
1.19 1.13 1.09 1.04 1.00 0.99 0.99 0.99 1.00 1.01 1.04 0.97 0.99 0.85 0.76 0.60 0.67 0.62 0.61 0.62 0.64 0.65 0.63 0.63 0.75 0.84 0.88 0.71 0.54 0.46 0.45 0.44 0.45 0.46 0.42 0.41 0.39 0.34 0.30 0.27 0.31 0.32 0.49 0.51 0.48 0.54 0.70
1.09 1.04 1.03 1.00 0.97 0.95 0.95 0.96 0.96 0.96 1.01 0.96 0.95 0.99 0.84 0.66 0.56 0.71 0.64 0.66 0.57 0.58 0.57 0.63 0.78 0.89 0.80 0.68 0.55 0.42 0.40 0.42 0.40 0.43 0.48 0.46 0.43 0.34 0.34 0.28 0.25 0.38 0.59 0.67 0.64 0.46 0.72
1.04 0.99 0.99 0.98 0.95 0.95 0.97 0.99 0.99 1.03 1.03 0.95 0.92 1.03 0.87 0.67 0.64 0.70 0.63 0.63 0.72 0.67 0.61 0.65 0.71 0.76 0.78 0.66 0.55 0.49 0.47 0.53 0.42 0.40 0.42 0.41 0.36 0.33 0.35 0.31 0.32 0.41 0.64 0.77 0.45 0.46 0.73
1.06 1.02 1.02 1.02 0.99 0.99 1.01 1.02 0.98 1.02 1.05 0.96 0.90 1.02 0.84 0.65 0.60 0.70 0.77 0.76 0.76 0.74 0.61 0.71 0.71 0.78 0.73 0.64 0.60 0.57 0.52 0.53 0.51 0.53 0.46 0.41 0.37 0.36 0.40 0.36 0.32 0.57 0.53 0.45 0.53 0.67 0.71
1.06 1.04 1.05 1.08 1.08 1.04 1.02 1.00 1.00 1.00 1.02 0.99 0.79 0.96 0.96 0.72 0.61 0.85 0.91 0.97 0.94 0.93 0.80 0.76 0.73 0.77 0.82 0.71 0.67 0.65 0.58 0.58 0.54 0.48 0.61 0.47 0.52 0.45 0.46 0.45 0.58 0.62 0.54 0.59 0.64 0.62 0.67